Weather History for Estherville, IA

Change the Weather History Date:

Sunday, August 3, 2014

  Actual Average Record
Temperature  
Mean Temperature 70 °F 71 °F  
Max Temperature 83 °F 81 °F 98 °F (1955)
Min Temperature 57 °F 60 °F 44 °F (1971)
Degree Days  
Heating Degree Days 0 0  
Month to date heating degree days 0 0  
Since 1 June heating degree days 58 50  
Since 1 July heating degree days 27 9  
Cooling Degree Days 5 6  
Month to date cooling degree days 13 18  
Year to date cooling degree days 289 410  
Since 1 June cooling degree days 240 374  
Growing Degree Days 19 (Base 50)    
Moisture  
Dew Point 62 °F    
Average Humidity 79    
Maximum Humidity 100    
Minimum Humidity 58    
Precipitation  
Precipitation 0.00 in 0.17 in 1.25 in (1953)
Month to date precipitation 0.00 0.49  
Sea Level Pressure  
Sea Level Pressure 30.10 in    
Wind  
Wind Speed 3 mph (SE)    
Max Wind Speed 8 mph    
Max Gust Speed 11 mph    
Visibility 6 miles    
Events      
T = Trace of Precipitation, MM = Missing Value Source: NWS Daily Summary

Daily Weather History Graph

Daily Weather History Graph

Search for Another Location

Airport:

Trip Planner

Search our weather history database for the weather conditions in past years. The results will help you decide how hot, cold, wet, or windy it might be!

Date:

Astronomy

Aug. 03, 2014 Rise Set
Actual Time 6:10 AM CDT 8:38 PM CDT
Civil Twilight 5:38 AM CDT 9:10 PM CDT
Nautical Twilight 4:58 AM CDT 9:50 PM CDT
Astronomical Twilight 4:13 AM CDT 10:35 PM CDT
Moon 1:46 PM CDT (8/3) No Moon Set
Length of Visible Light 15h 32m
Length of Day
14h 27m
Waxing Crescent, 47% of the Moon is Illuminated
Aug 3
Waxing Crescent
Aug 3
First Quarter
Aug 10
Full
Aug 17
Last Quarter
Aug 25
New

Hourly Weather History & Observations

Time (CDT) Temp. Heat Index Dew Point Humidity Pressure Visibility Wind Dir Wind Speed Gust Speed Precip Events Conditions
12:52 AM 63.0 °F - 61.0 °F 93% 30.10 in 8.0 mi ENE 3.5 mph - N/A   Clear
1:52 AM 63.0 °F - 61.0 °F 93% 30.09 in 7.0 mi SSE 3.5 mph - N/A   Clear
4:52 AM 60.1 °F - 60.1 °F 100% 30.11 in 4.0 mi SSW 3.5 mph - N/A   Clear
5:42 AM 57.0 °F - 55.9 °F 96% 30.11 in 7.0 mi Calm Calm - N/A   Partly Cloudy
5:52 AM 57.9 °F - 55.9 °F 93% 30.10 in 5.0 mi Calm Calm - N/A   Mostly Cloudy
5:56 AM 59.0 °F - 57.0 °F 93% 30.11 in 1.5 mi Calm Calm - N/A   Mostly Cloudy
5:58 AM 59.0 °F - 57.0 °F 93% 30.11 in 0.8 mi Calm Calm - N/A   Mist
6:17 AM 57.9 °F - 57.9 °F 100% 30.12 in 1.5 mi Calm Calm - N/A   Mostly Cloudy
6:25 AM 57.9 °F - 57.9 °F 100% 30.12 in 3.0 mi Calm Calm - N/A   Mostly Cloudy
6:27 AM 57.9 °F - 57.0 °F 97% 30.12 in 1.8 mi NE 3.5 mph - N/A   Mostly Cloudy
6:29 AM 57.9 °F - 57.0 °F 97% 30.12 in 0.8 mi Calm Calm - N/A   Mist
6:52 AM 59.0 °F - 57.9 °F 96% 30.11 in 0.8 mi Calm Calm - N/A   Mist
6:54 AM 59.0 °F - 57.9 °F 96% 30.12 in 1.2 mi North 3.5 mph - N/A   Overcast
7:07 AM 60.1 °F - 59.0 °F 96% 30.12 in 2.5 mi Calm Calm - N/A   Scattered Clouds
7:15 AM 61.0 °F - 60.1 °F 97% 30.12 in 4.0 mi Calm Calm - N/A   Partly Cloudy
7:52 AM 64.9 °F - 63.0 °F 93% 30.12 in 4.0 mi Calm Calm - N/A   Clear
8:52 AM 72.0 °F - 64.0 °F 76% 30.12 in 8.0 mi North 3.5 mph - N/A   Clear
9:52 AM 73.0 °F - 66.0 °F 79% 30.12 in 10.0 mi Variable 3.5 mph - N/A   Clear
10:52 AM 75.9 °F - 66.9 °F 74% 30.12 in 10.0 mi SSE 6.9 mph - N/A   Clear
11:52 AM 77.0 °F - 66.0 °F 69% 30.12 in 10.0 mi ESE 4.6 mph - N/A   Clear
12:52 PM 79.0 °F - 66.0 °F 64% 30.10 in 10.0 mi South 5.8 mph - N/A   Clear
1:24 PM 79.0 °F - 64.0 °F 60% 30.11 in 10.0 mi Calm Calm - N/A   Partly Cloudy
1:52 PM 81.0 °F 82.5 °F 64.0 °F 56% 30.09 in 10.0 mi South 5.8 mph - N/A   Clear
2:52 PM 81.0 °F 82.5 °F 64.0 °F 56% 30.07 in 10.0 mi South 5.8 mph - N/A   Clear
3:52 PM 81.0 °F 82.7 °F 64.9 °F 58% 30.06 in 10.0 mi SSE 3.5 mph - N/A   Clear
4:52 PM 80.1 °F 81.9 °F 64.9 °F 60% 30.05 in 10.0 mi SE 3.5 mph - N/A   Clear
5:52 PM 80.1 °F 82.1 °F 66.0 °F 62% 30.05 in 10.0 mi SE 3.5 mph - N/A   Scattered Clouds
6:52 PM 79.0 °F - 68.0 °F 69% 30.04 in 10.0 mi SSE 3.5 mph - N/A   Clear
7:52 PM 78.1 °F - 70.0 °F 76% 30.05 in 10.0 mi Calm Calm - N/A   Clear
11:52 PM 69.1 °F - 66.9 °F 93% 30.06 in 9.0 mi South 4.6 mph - N/A   Clear